[[{"header":{"parameterUnit":"m.s-1","parameterCategory":1,"la1":30.2991,"la2":30.254,"lo1":-89.0895,"lo2":-89.0444,"dy":0.0017,"dx":0.0017,"nx":28,"ny":28,"refTime":"2023-10-03T09:00:00:Z","depth":0,"parameterNumber":2,"parameterNumberName":"U-component_of_WINDS"},"data":[0,0,0,0,0,0,0,0,0,0,0,0,0,0,0,0,0,0,0,0,0,0,0,0,0,0,0,0,0,0,0,0,0,0,0,0,0,0,0,0,0,0,0,0,0,0,0,0,0,0,0,0,0,0,0,0,0,0,-2.9031,-2.9031,0,-2.9067,-2.9067,-2.9068,-2.8986,-2.8983,-2.8981,-2.8978,-2.9015,-2.9018,-2.9022,0,0,0,0,0,0,0,0,0,0,0,0,0,-2.8891,-2.8894,-2.9031,-2.9031,-2.9032,-2.9067,-2.9067,-2.9068,-2.8986,-2.8983,-2.898,-2.8977,-2.9014,-2.9018,-2.9022,0,0,0,0,0,0,0,0,0,0,0,0,0,-2.8942,-2.8895,-2.9031,-2.8995,-2.8993,-2.9067,-2.9067,-2.9068,-2.8987,-2.8983,-2.8979,-2.8976,-2.9013,-2.9018,-2.9023,-2.9133,0,0,-2.9038,-2.9041,0,0,0,0,0,0,0,0,-2.8939,-2.8947,-2.9,-2.8998,-2.8995,-2.9018,-2.9032,-2.909,-2.8988,-2.8989,-2.8978,-2.8974,-2.9019,-2.9024,-2.9039,-2.9135,-2.9136,-2.9039,-2.9042,-2.9044,-2.9046,0,0,0,0,0,0,0,-2.8936,-2.8945,-2.9045,-2.9001,-2.8998,-2.8978,-2.8981,-2.9042,-2.9026,-2.8989,-2.8983,-2.8988,-2.9017,-2.9034,-2.9039,-2.9137,-2.9039,-2.9043,-2.9046,-2.9048,-2.9324,-2.9328,0,0,0,0,0,0,-2.8937,-2.8943,-2.9044,-2.9046,-2.8957,-2.8983,-2.8987,-2.9015,-2.9025,-2.9023,-2.8992,-2.8984,-2.9027,-2.9033,-2.904,-2.9169,-2.9044,-2.9049,-2.9052,-2.932,-2.9325,-2.9329,0,0,0,0,0,0,-2.8934,-2.8947,-2.9042,-2.8993,-2.9004,-2.899,-2.9022,-2.9017,-2.9034,-2.9027,-2.9024,-2.9012,-2.9024,-2.9033,-2.911,-2.9169,-2.9051,-2.9056,-2.9315,-2.9321,-2.9327,-2.9428,0,0,0,0,0,0,-2.8931,-2.8946,-2.8988,-2.8995,-2.9007,-2.9112,-2.9026,-2.9021,-2.9043,-2.9034,-2.9045,-2.9043,-2.9022,-2.9103,-2.9115,-2.9174,-2.906,-2.9309,-2.9318,-2.9325,-2.9419,-2.9437,-2.9452,0,0,0,0,0,-2.8926,-2.9015,-2.8991,-2.9003,-2.9059,-2.9116,-2.9123,-2.9096,-2.9049,-2.909,-2.9085,-2.9043,-2.9161,-2.9112,-2.9125,-2.9186,-2.9305,-2.9315,-2.9324,-2.9412,-2.9433,-2.9451,0,0,0,0,0,0,-2.9016,-2.9015,-2.8988,-2.9082,-2.91,-2.9102,-2.9153,-2.912,-2.9151,-2.9141,-2.9107,-2.9111,-2.9194,-2.9198,-2.9143,-2.9293,-2.9225,-2.9238,-2.9287,-2.9307,-2.9323,-2.932,-2.9064,0,0,0,0,0,-2.9046,-2.9093,-2.909,-2.9173,-2.9184,-2.9168,-2.9191,-2.917,-2.9186,-2.9193,-2.9194,-2.9212,-2.9253,-2.9281,-2.9318,-2.942,-2.942,-2.9468,-2.9485,-2.9498,-2.9509,-2.9562,-2.9583,-2.9361,-2.9361,-2.936,0,0,-2.911,-2.9116,-2.9147,-2.9191,-2.9202,-2.9251,-2.9174,-2.9229,-2.9265,-2.9202,-2.9274,-2.9276,-2.9294,-2.9384,-2.9423,-2.9389,-2.9571,-2.951,-2.9521,-2.9524,-2.9574,-2.9595,-2.9614,-2.9367,-2.9366,-2.9365,0,0,-2.9251,-2.926,-2.933,-2.9343,-2.936,-2.9349,-2.9366,-2.9374,-2.9372,-2.9445,-2.9399,-2.9441,-2.9512,-2.9526,-2.9543,-2.969,-2.9652,-2.9704,-2.9789,-2.9841,-2.9858,-2.9874,-2.9925,-2.9944,-2.9715,-2.9715,-2.9715,0,-2.9327,-2.9399,-2.937,-2.9428,-2.9448,-2.9394,-2.9464,-2.9478,-2.9508,-2.9523,-2.9485,-2.9573,-2.9581,-2.9673,-2.9709,-2.9725,-2.9743,-2.9701,-2.9858,-2.9873,-2.9887,-2.9936,-2.9955,-2.9721,-2.972,-2.972,-2.9719,0,-2.9492,-2.9542,-2.9597,-2.9626,-2.9653,-2.9717,-2.9697,-2.9728,-2.9705,-2.9698,-2.9772,-2.978,-2.9818,-2.9839,-2.9816,-2.9928,-2.9906,-2.9864,-2.9795,-2.9915,-2.996,-2.9978,-2.973,-2.9728,-2.9726,-2.9724,0,0,-2.9688,-2.9701,-2.9721,-2.9734,-2.975,-2.9788,-2.985,-2.9887,-2.9913,-2.9936,-2.9986,-3.0048,-3.0009,-3.0029,-3.0008,-3.0054,-3.0168,-3.0006,-3.0006,-3.0034,-3.0291,-3.0321,-3.0343,-3.0144,-3.0148,-3.015,-3.0289,0,-2.9826,-2.9931,-2.9907,-3.0011,-3.0057,-3.0006,-3.006,-3.0076,-3.0071,-3.0109,-3.0104,-3.0148,-3.0094,-3.0105,-3.0149,-3.0145,-3.0219,-3.0135,-3.019,-3.0192,-3.0185,-3.0366,-3.0399,-3.0528,-3.0306,-3.0309,-3.0311,0,-3.0,-3.0029,-3.0137,-3.0146,-3.0164,-3.0213,-3.0244,-3.0282,-3.0299,-3.0292,-3.0314,-3.0284,-3.0345,-3.0277,-3.036,-3.0304,-3.0325,-3.0327,-3.0331,-3.0333,-3.0258,-3.0372,-3.0569,-3.0588,-3.0339,-3.0337,-3.0335,0,-3.0131,-3.0197,-3.027,-3.0282,-3.0294,-3.0329,-3.0336,-3.0349,-3.0373,-3.0401,-3.0416,-3.0451,-3.047,-3.0498,-3.0479,-3.0431,-3.0565,-3.0495,-3.056,-3.0561,-3.0589,-3.0587,-3.0791,-3.0606,-3.0606,-3.0605,-3.0605,0,-3.0286,-3.0354,-3.0328,-3.0373,-3.0448,-3.042,-3.0495,-3.0496,-3.0508,-3.0552,-3.0511,-3.0554,-3.0526,-3.0566,-3.0551,-3.0622,-3.0631,-3.0627,-3.0622,-3.063,-3.063,-3.0642,-3.0632,-3.0611,-3.0609,-3.0608,-3.0608,0,-3.0443,-3.0429,-3.0505,-3.0511,-3.0514,-3.0568,-3.0573,-3.0614,-3.0607,-3.0663,-3.0675,-3.0664,-3.0709,-3.0693,-3.0741,-3.0731,-3.0821,-3.0805,-3.0815,-3.081,-3.0875,-3.0869,-3.1092,-3.1119,-3.0919,-3.0921,-3.0922,0,-3.0542,-3.0593,-3.0604,-3.0631,-3.064,-3.0684,-3.0707,-3.0683,-3.0709,-3.0733,-3.0771,-3.0813,-3.0845,-3.0919,-3.0915,-3.0952,-3.0936,-3.1012,-3.0941,-3.0947,-3.0935,-3.0932,-3.0936,-3.1025,-3.1027,-3.1029,-3.1031,0,-3.0719,-3.071,-3.0746,-3.078,-3.0809,-3.0835,-3.0857,-3.0881,-3.0857,-3.089,-3.0935,-3.096,-3.1009,-3.1051,-3.1084,-3.109,-3.1057,-3.1053,-3.107,-3.1077,-3.1081,-3.1078,-3.0851,-3.1048,-3.1046,-3.1045,-3.1044,-3.1043,-3.0849,-3.0892,-3.0906,-3.0948,-3.0962,-3.0983,-3.1022,-3.102,-3.1057,-3.1095,-3.1079,-3.1131,-3.1147,-3.1188,-3.12,-3.124,-3.1211,-3.1236,-3.1241,-3.1248,-3.1255,-3.1076,-3.1247,-3.1246,-3.1246,-3.1245,-3.1245,0,-3.1023,-3.103,-3.1068,-3.11,-3.1133,-3.1099,-3.1121,-3.1151,-3.1197,-3.1215,-3.1247,-3.1299,-3.134,-3.134,-3.1377,-3.141,-3.1395,-3.142,-3.1417,-3.1419,-3.128,-3.1261,-3.1431,-3.1431,-3.1431,-3.1431,-3.1431,-3.1431,-3.1117,-3.1187,-3.1179,-3.1256,-3.1262,-3.1313,-3.1329,-3.1348,-3.1362,-3.1422,-3.1455,-3.1455,-3.1465,-3.1503,-3.1539,-3.1538,-3.1553,-3.1584,-3.1577,-3.1447,-3.1428,-3.1411,-3.1393,-3.1588,-3.1588,-3.1712,-3.1713,-3.1714]},{"header":{"parameterUnit":"m.s-1","parameterCategory":1,"la1":30.2991,"la2":30.254,"lo1":-89.0895,"lo2":-89.0444,"dy":0.0017,"dx":0.0017,"nx":28,"ny":28,"refTime":"2023-10-03T09:00:00:Z","depth":0,"parameterNumber":3,"parameterNumberName":"V-component_of_WINDS"},"data":[0,0,0,0,0,0,0,0,0,0,0,0,0,0,0,0,0,0,0,0,0,0,0,0,0,0,0,0,0,0,0,0,0,0,0,0,0,0,0,0,0,0,0,0,0,0,0,0,0,0,0,0,0,0,0,0,0,0,2.0175,2.0175,0,2.0183,2.0183,2.0184,2.0163,2.0162,2.0162,2.0161,2.0169,2.017,2.017,0,0,0,0,0,0,0,0,0,0,0,0,0,2.0141,2.0142,2.0175,2.0175,2.0175,2.0183,2.0183,2.0184,2.0163,2.0162,2.0162,2.0161,2.0169,2.0169,2.017,0,0,0,0,0,0,0,0,0,0,0,0,0,2.0153,2.0142,2.0175,2.0166,2.0165,2.0183,2.0183,2.0184,2.0163,2.0162,2.0161,2.016,2.0168,2.0169,2.0171,2.0197,0,0,2.0174,2.0175,0,0,0,0,0,0,0,0,2.0153,2.0155,2.0167,2.0167,2.0166,2.0171,2.0174,2.0188,2.0164,2.0164,2.0161,2.016,2.017,2.0171,2.0175,2.0198,2.0198,2.0174,2.0175,2.0176,2.0176,0,0,0,0,0,0,0,2.0152,2.0154,2.0178,2.0168,2.0167,2.0162,2.0162,2.0177,2.0173,2.0164,2.0162,2.0164,2.017,2.0174,2.0175,2.0198,2.0174,2.0175,2.0176,2.0177,2.0243,2.0244,0,0,0,0,0,0,2.0152,2.0154,2.0178,2.0179,2.0157,2.0163,2.0164,2.0171,2.0172,2.0172,2.0165,2.0163,2.0172,2.0174,2.0175,2.0206,2.0176,2.0177,2.0177,2.0242,2.0243,2.0244,0,0,0,0,0,0,2.0152,2.0155,2.0178,2.0166,2.0168,2.0165,2.0172,2.0171,2.0175,2.0173,2.0172,2.017,2.0172,2.0173,2.0192,2.0206,2.0177,2.0178,2.0241,2.0242,2.0244,2.0269,0,0,0,0,0,0,2.0151,2.0155,2.0165,2.0166,2.0169,2.0195,2.0173,2.0172,2.0177,2.0175,2.0177,2.0177,2.0171,2.019,2.0193,2.0207,2.0179,2.0239,2.0241,2.0243,2.0266,2.0271,2.0275,0,0,0,0,0,2.015,2.0172,2.0165,2.0169,2.0182,2.0196,2.0197,2.019,2.0179,2.0189,2.0187,2.0177,2.0204,2.0192,2.0195,2.021,2.0238,2.0241,2.0243,2.0265,2.027,2.0274,0,0,0,0,0,0,2.0172,2.0171,2.0165,2.0188,2.0192,2.0192,2.0205,2.0196,2.0204,2.0201,2.0192,2.0193,2.0213,2.0213,2.02,2.0236,2.0219,2.0222,2.0235,2.024,2.0244,2.0243,2.018,0,0,0,0,0,2.0179,2.0191,2.019,2.021,2.0213,2.0208,2.0214,2.0209,2.0212,2.0214,2.0214,2.0218,2.0227,2.0234,2.0242,2.0267,2.0267,2.0278,2.0283,2.0286,2.0288,2.0301,2.0306,2.0252,2.0252,2.0252,0,0,2.0195,2.0196,2.0204,2.0215,2.0217,2.0229,2.021,2.0223,2.0232,2.0216,2.0233,2.0233,2.0237,2.0259,2.0268,2.026,2.0303,2.0289,2.0291,2.0292,2.0304,2.0309,2.0313,2.0254,2.0253,2.0253,0,0,2.0229,2.0232,2.0249,2.0252,2.0256,2.0253,2.0257,2.0259,2.0258,2.0276,2.0264,2.0274,2.0291,2.0294,2.0297,2.0333,2.0323,2.0336,2.0357,2.0369,2.0373,2.0377,2.0389,2.0394,2.0339,2.0339,2.0339,0,2.0248,2.0266,2.0259,2.0273,2.0277,2.0264,2.0281,2.0284,2.0291,2.0294,2.0285,2.0306,2.0307,2.0329,2.0338,2.0342,2.0346,2.0336,2.0373,2.0377,2.038,2.0392,2.0396,2.0341,2.034,2.034,2.034,0,2.0288,2.03,2.0314,2.0321,2.0327,2.0342,2.0337,2.0345,2.0339,2.0337,2.0355,2.0356,2.0365,2.037,2.0364,2.0391,2.0385,2.0375,2.0358,2.0387,2.0398,2.0402,2.0343,2.0342,2.0342,2.0341,0,0,2.0336,2.0339,2.0344,2.0347,2.0351,2.036,2.0375,2.0383,2.0389,2.0395,2.0406,2.0421,2.0411,2.0416,2.041,2.0421,2.0449,2.0409,2.0409,2.0416,2.0477,2.0485,2.049,2.0443,2.0444,2.0444,2.0477,0,2.0369,2.0395,2.0389,2.0414,2.0425,2.0412,2.0425,2.0429,2.0427,2.0436,2.0435,2.0445,2.0432,2.0434,2.0445,2.0443,2.0461,2.0441,2.0453,2.0453,2.0451,2.0495,2.0503,2.0534,2.0481,2.0482,2.0482,0,2.0412,2.0419,2.0445,2.0446,2.0451,2.0462,2.0469,2.0478,2.0482,2.048,2.0485,2.0478,2.0492,2.0476,2.0495,2.0481,2.0486,2.0486,2.0487,2.0487,2.0469,2.0496,2.0543,2.0548,2.0489,2.0488,2.0488,0,2.0443,2.0459,2.0476,2.0479,2.0482,2.049,2.0492,2.0495,2.05,2.0506,2.051,2.0518,2.0522,2.0528,2.0523,2.0512,2.0543,2.0526,2.0541,2.0542,2.0548,2.0547,2.0596,2.0552,2.0552,2.0552,2.0552,0,2.0481,2.0497,2.0491,2.0501,2.0519,2.0512,2.053,2.053,2.0532,2.0543,2.0533,2.0542,2.0535,2.0544,2.054,2.0557,2.0559,2.0557,2.0556,2.0558,2.0558,2.056,2.0558,2.0553,2.0553,2.0553,2.0553,0,2.0518,2.0515,2.0533,2.0534,2.0535,2.0548,2.0548,2.0558,2.0556,2.0569,2.0572,2.0569,2.0579,2.0575,2.0585,2.0583,2.0603,2.06,2.0602,2.0601,2.0616,2.0614,2.0667,2.0673,2.0626,2.0627,2.0627,0,2.0542,2.0554,2.0557,2.0563,2.0565,2.0575,2.0581,2.0575,2.0581,2.0586,2.0595,2.0604,2.0611,2.0628,2.0627,2.0635,2.063,2.0648,2.0632,2.0633,2.063,2.0629,2.063,2.0651,2.0652,2.0652,2.0653,0,2.0584,2.0582,2.0591,2.0598,2.0605,2.0611,2.0616,2.0622,2.0616,2.0623,2.0633,2.0639,2.065,2.0659,2.0666,2.0667,2.0659,2.0658,2.0662,2.0664,2.0664,2.0663,2.061,2.0657,2.0656,2.0656,2.0656,2.0656,2.0615,2.0626,2.0629,2.0638,2.0641,2.0646,2.0655,2.0654,2.0663,2.0671,2.0667,2.0679,2.0682,2.0691,2.0693,2.0702,2.0695,2.0701,2.0702,2.0704,2.0705,2.0664,2.0704,2.0704,2.0704,2.0704,2.0703,0,2.0657,2.0658,2.0667,2.0674,2.0682,2.0674,2.0679,2.0685,2.0696,2.07,2.0707,2.0718,2.0727,2.0727,2.0735,2.0742,2.0738,2.0744,2.0743,2.0744,2.0711,2.0707,2.0747,2.0747,2.0747,2.0747,2.0747,2.0747,2.0679,2.0695,2.0693,2.0711,2.0712,2.0724,2.0727,2.0732,2.0734,2.0748,2.0755,2.0755,2.0757,2.0765,2.0773,2.0772,2.0775,2.0782,2.0781,2.075,2.0746,2.0742,2.0737,2.0783,2.0783,2.0812,2.0812,2.0812]}]]